Wind_Speed
37 36 30 27 27 24 24 23 20 20 18 17 14 16 13 12 16 18 18 19 17 17 16 16 15 15 14 14 13 12 11 11 10 9 10 10 10 9 8 7 8 8 8
32 37 35 30 27 26 23 21 20 20 18 16 16 15 14 14 15 17 17 17 18 17 16 15 14 14 13 12 11 11 10 10 9 9 8 7 7 6 5 5 5 4 5
38 35 32 30 26 25 22 18 19 18 17 17 17 16 15 14 14 16 17 16 16 17 16 14 15 14 13 12 11 10 9 8 8 8 8 7 5 4 3 3 2 2 1
36 36 29 23 23 21 20 19 19 17 16 16 16 16 15 14 14 13 15 15 15 14 17 17 16 15 14 12 11 10 10 10 10 10 10 9 8 6 3 2 1 1 1
28 28 19 18 24 21 21 18 15 15 14 15 15 15 14 13 13 13 12 12 14 14 14 18 17 17 16 15 14 13 13 13 12 12 11 10 10 9 7 6 4 4 4
35 31 24 28 27 26 21 16 14 14 14 14 16 14 12 12 13 13 13 13 12 13 12 16 19 18 19 18 16 15 15 14 15 14 14 13 13 12 11 11 10 10 9
34 30 26 23 20 20 15 18 20 17 15 13 13 12 10 10 12 13 13 13 14 15 15 15 18 18 21 21 21 21 20 18 18 18 18 17 17 15 15 15 15 15 15
34 29 30 26 28 23 21 22 21 17 14 14 13 13 6 9 13 14 13 14 17 16 17 19 20 18 18 20 26 26 24 22 21 21 22 22 22 21 21 21 21 21 20
33 28 27 27 26 21 23 24 21 18 16 14 10 4 3 4 8 12 16 16 16 18 18 23 26 22 22 22 20 25 25 27 25 21 20 18 22 25 24 24 25 25 25
37 33 30 28 31 24 23 23 18 17 14 13 14 18 7 1 2 1 10 18 23 26 26 27 23 22 23 23 26 27 24 24 27 27 26 25 23 21 18 20 22 23 27
33 35 34 33 31 27 21 20 12 15 18 15 16 11 15 11 7 7 5 11 15 17 19 22 23 23 26 26 26 26 30 28 26 26 25 26 26 26 24 21 21 21 23
34 30 31 29 29 23 20 18 20 24 23 20 19 17 14 15 15 12 9 13 14 14 18 18 21 23 21 22 25 24 25 26 27 26 27 27 27 23 21 20 19 18 20
29 36 34 34 33 30 21 21 23 23 22 23 23 23 23 21 16 15 15 14 11 8 14 22 21 20 21 21 21 25 29 28 27 27 24 22 21 20 20 20 21 22 20
35 40 42 39 34 33 25 24 24 23 21 22 22 23 23 21 21 21 19 15 2 11 14 17 18 21 21 19 21 23 23 26 24 22 21 20 20 20 21 22 23 23 24
34 37 43 39 40 42 38 29 25 27 22 25 26 22 23 23 21 22 21 19 16 5 8 12 17 23 22 18 22 21 18 18 20 21 20 21 21 22 23 23 23 25 26
39 39 39 39 38 40 35 35 33 26 26 26 25 25 27 26 23 23 20 22 19 18 5 15 19 19 23 20 19 18 16 19 19 19 21 22 23 23 24 25 26 27 28
39 40 38 38 38 37 37 37 36 31 30 29 30 30 29 26 25 23 26 23 25 25 15 16 17 20 23 21 18 20 17 17 16 19 18 21 24 24 26 26 26 26 26
37 40 37 37 38 38 38 38 36 34 33 32 32 29 30 28 29 31 29 32 32 29 26 17 19 17 20 20 20 15 17 16 15 14 18 22 24 25 25 25 25 22 22
35 36 37 37 39 39 38 38 37 35 34 34 34 31 31 29 29 31 33 31 32 28 31 21 18 20 20 20 21 17 19 20 16 17 20 25 22 21 23 20 20 20 19
36 36 38 38 38 37 38 38 37 37 37 37 35 31 31 30 31 33 33 34 31 28 30 26 20 17 17 14 21 17 15 17 17 14 16 18 19 22 19 17 18 20 18
39 39 37 38 39 38 39 39 38 39 38 35 32 34 32 34 37 30 32 34 32 30 27 23 15 15 14 15 21 15 15 17 17 16 17 16 15 15 15 17 19 20 19
38 37 39 39 39 39 40 42 41 35 35 33 31 33 35 39 36 30 33 35 36 33 28 21 17 18 18 19 18 16 14 11 10 14 17 15 14 16 18 18 18 22 23
35 38 37 37 37 38 39 40 42 41 31 29 32 31 35 35 34 30 30 32 32 31 28 24 17 13 14 18 19 15 14 11 14 15 13 17 18 21 20 20 21 23 23
36 36 36 35 35 35 37 40 41 40 40 33 33 35 36 34 33 31 29 25 24 20 17 16 10 14 10 13 16 15 12 12 13 16 16 17 17 21 20 21 21 23 26
32 34 31 31 31 29 30 34 31 33 34 35 32 30 29 28 26 29 31 28 21 17 16 13 13 10 12 14 12 9 10 9 11 15 16 19 16 20 18 19 26 23 16
27 25 25 24 26 25 26 25 27 30 30 23 17 15 16 18 21 23 27 26 20 13 12 12 12 11 10 12 13 13 7 10 10 9 11 14 12 11 9 12 14 14 21
Wind_Direction
171 168 167 158 160 161 160 158 156 156 158 162 156 155 154 145 140 143 149 156 152 150 151 149 146 142 139 139 139 133 132 134 128 125 119 116 112 105 99 93 86 84 80
173 164 165 173 167 163 164 164 158 157 160 159 159 158 153 152 150 146 153 161 165 162 161 160 154 152 151 150 153 148 153 156 150 147 146 130 121 113 98 87 87 97 91
164 159 171 169 163 166 169 154 160 156 160 160 159 162 154 157 149 152 157 167 173 177 175 171 173 169 168 169 166 166 166 170 174 170 169 166 156 147 128 109 103 93 62
153 149 162 167 162 158 158 160 165 161 165 164 162 166 161 162 160 162 166 168 174 183 188 190 189 184 186 184 185 185 188 189 194 195 192 189 191 191 195 198 205 51 319
149 157 162 168 158 150 159 153 161 163 171 169 175 171 169 169 172 175 176 181 180 186 191 202 204 201 205 201 199 202 206 208 208 212 213 209 212 214 226 236 249 255 258
166 179 182 173 159 157 157 158 165 173 181 180 183 172 177 178 185 189 191 191 193 199 202 200 205 213 218 220 214 215 218 222 225 222 222 225 226 227 236 247 252 254 265
178 181 171 168 158 161 168 176 176 180 182 187 181 173 184 194 197 202 201 202 206 209 209 211 208 210 224 227 225 222 223 225 227 231 230 229 235 242 245 250 253 260 258
181 172 173 174 169 173 179 181 182 171 177 186 187 180 183 196 216 214 209 211 216 215 216 219 220 221 218 227 227 229 225 226 230 234 236 234 238 239 243 245 249 251 250
178 195 182 176 174 177 185 189 180 179 176 188 199 214 194 202 185 204 217 221 223 222 223 222 225 226 229 232 228 233 234 231 229 234 242 248 249 249 248 252 254 255 255
185 190 183 179 181 183 188 190 181 185 188 190 206 222 243 204 166 188 230 228 229 229 233 235 233 233 234 229 231 230 227 237 235 238 242 247 251 256 260 263 265 269 264
192 193 191 186 189 192 195 193 193 207 209 211 198 207 224 230 237 225 235 220 228 234 233 239 229 233 233 234 231 235 232 233 236 239 246 251 254 257 261 264 269 272 274
189 187 192 195 197 200 208 195 203 217 213 218 215 215 206 208 220 223 237 246 238 230 227 219 234 245 239 241 237 234 234 234 236 243 248 249 253 256 257 263 271 277 277
192 197 197 197 206 213 217 210 219 226 228 228 228 228 231 233 240 230 248 259 254 218 214 233 236 242 238 236 234 232 231 238 240 243 239 240 245 253 262 268 275 278 280
196 197 201 207 210 219 219 226 224 223 224 233 241 238 237 235 235 240 238 249 221 241 241 236 222 229 231 229 227 231 230 232 230 230 232 240 249 258 265 274 276 278 279
204 205 209 208 213 225 222 229 230 226 233 240 242 238 236 238 242 243 245 232 214 230 223 237 217 228 223 217 218 218 204 225 227 232 240 246 253 261 268 273 276 278 281
212 211 211 213 216 219 223 231 236 232 233 232 234 239 240 241 242 240 237 227 220 229 252 223 223 216 204 207 211 210 208 224 232 239 247 250 255 262 269 273 277 280 282
207 211 213 215 217 218 225 229 234 234 234 235 237 236 241 239 241 231 224 232 228 228 233 246 237 209 204 200 199 209 214 224 234 249 256 258 259 265 271 274 276 277 278
207 208 211 214 216 220 224 225 228 229 232 239 242 241 233 230 229 224 230 228 228 230 232 221 211 195 196 200 202 206 217 221 236 250 246 260 266 266 267 271 273 275 278
209 211 214 215 216 219 221 225 227 231 234 240 242 240 235 230 237 239 233 234 223 232 220 215 202 200 196 201 194 207 209 219 235 247 257 264 269 271 270 267 274 280 285
213 215 216 220 221 223 226 229 232 236 241 243 242 241 238 242 238 236 233 232 229 217 219 214 194 178 194 206 209 213 220 230 243 244 253 257 262 272 276 285 291 292 292
214 216 219 224 226 228 230 232 233 236 240 239 236 235 236 243 243 239 228 229 227 213 205 199 184 170 183 170 193 200 221 232 240 253 258 255 255 265 273 281 286 291 284
219 219 221 222 225 229 231 232 234 236 236 233 230 235 240 242 239 243 245 247 241 209 203 195 187 195 181 179 195 202 206 230 252 251 245 252 256 269 272 272 269 272 275
216 219 221 222 224 227 230 231 234 230 231 227 236 234 232 240 241 234 229 226 220 202 207 199 182 180 173 181 188 200 216 225 245 252 266 267 270 274 272 270 273 278 280
216 218 220 222 226 227 226 228 230 231 233 236 234 229 240 236 230 226 213 196 185 186 183 178 190 173 190 188 193 204 220 242 255 258 261 266 264 266 272 276 273 275 282
215 220 220 221 224 230 233 234 223 224 229 229 226 231 232 224 214 206 193 179 167 163 164 161 161 185 207 205 187 204 221 233 252 260 262 261 264 277 274 283 279 280 273
214 214 217 218 224 227 230 228 233 233 215 207 209 209 214 208 185 178 175 169 153 152 156 151 169 189 208 222 222 218 225 245 258 281 280 259 266 288 285 270 272 275 296
Height
797 804 813 820 825 831 835 837 838 843 847 851 853 855 857 858 862 865 869 873 874 877 880 881 884 885 887 888 890 891 892 894 895 896 896 896 895 897 898 899 898 898 898
801 805 807 820 824 829 833 835 839 842 847 850 854 856 858 861 862 864 868 872 875 877 880 883 885 887 888 889 892 891 893 894 895 895 896 896 896 898 898 899 899 898 897
799 802 811 818 822 827 832 834 840 842 846 849 853 856 858 861 862 864 867 870 874 878 881 882 885 886 888 889 890 893 894 895 896 896 895 896 896 897 897 897 898 898 897
796 798 812 817 822 826 831 835 839 841 846 849 853 856 857 860 863 865 867 870 873 877 880 882 884 884 887 887 889 891 892 893 894 894 893 893 894 895 896 897 897 896 896
796 805 814 820 821 826 831 835 838 841 845 849 853 854 856 858 862 865 866 869 871 874 877 879 881 883 885 886 886 888 890 891 892 894 894 893 893 893 894 895 895 895 894
806 814 820 822 823 827 832 836 840 843 847 848 851 852 855 857 860 862 865 867 869 873 875 875 878 881 882 883 883 886 888 890 891 891 891 892 891 889 891 893 893 893 893
810 816 819 820 822 827 830 836 841 844 845 848 849 851 854 856 857 860 862 863 867 869 870 873 873 876 876 878 878 880 882 884 887 888 888 889 889 889 889 889 890 890 890
808 813 816 820 822 828 833 837 840 841 843 846 846 847 850 855 856 858 858 860 863 865 865 868 870 871 872 872 872 874 876 879 881 882 884 884 884 884 886 886 886 887 886
805 809 812 815 817 825 830 834 834 836 839 843 843 844 847 847 849 854 856 857 859 860 861 861 863 865 867 869 869 869 870 874 875 877 879 880 881 881 882 882 882 882 881
802 806 808 812 819 823 827 829 830 832 836 838 841 842 845 847 849 852 853 853 854 855 855 857 858 860 861 861 862 862 863 866 869 871 873 874 875 876 876 877 877 877 876
799 804 807 812 814 818 822 823 822 829 832 835 837 840 843 846 847 848 849 848 850 849 851 850 852 853 853 853 854 855 858 861 863 865 866 868 869 868 869 869 870 870 870
796 800 804 807 812 815 818 818 821 827 827 830 832 835 838 839 840 842 843 840 843 844 846 846 847 848 849 851 851 851 852 854 856 858 859 860 861 862 863 863 863 863 864
789 793 799 804 808 811 814 814 820 823 823 825 829 831 833 834 835 835 836 834 837 839 840 839 839 842 843 844 845 844 846 848 849 851 851 853 854 856 857 857 856 856 856
782 788 794 799 803 808 808 812 815 817 819 822 824 826 828 829 829 830 830 831 836 837 835 832 831 834 836 838 837 838 840 842 844 847 847 849 849 850 851 851 851 850 849
778 783 788 792 796 800 803 806 809 812 814 816 819 820 821 822 822 823 824 825 826 828 827 824 825 827 830 832 831 833 835 838 840 842 843 844 844 845 845 845 844 844 842
773 777 782 786 788 791 796 800 802 804 806 808 810 814 814 815 815 816 818 819 820 822 821 817 817 821 823 826 826 828 832 834 836 837 839 838 838 839 840 839 838 837 836
763 769 773 778 781 785 789 792 794 797 799 801 804 805 805 806 807 810 811 812 813 815 814 812 814 815 818 821 821 824 828 830 831 832 833 833 833 834 834 833 832 831 829
756 761 765 769 772 776 780 782 785 788 790 792 793 795 795 796 799 798 798 798 800 802 807 806 808 809 812 815 817 819 823 826 827 825 826 827 828 827 826 826 825 824 822
749 754 758 760 762 766 770 773 775 778 780 781 783 785 786 789 790 792 791 791 788 793 796 797 799 802 806 808 808 814 817 818 821 822 821 821 821 820 819 818 817 815 815
742 746 749 752 756 759 763 765 768 770 771 772 774 776 779 781 780 781 782 783 782 786 788 789 790 795 799 802 806 809 813 815 817 818 817 816 816 814 812 812 811 810 810
730 734 739 743 747 750 752 755 757 759 761 763 765 768 767 768 771 771 772 774 775 777 780 782 784 785 792 795 799 804 808 811 812 813 812 811 810 809 809 807 805 804 804
721 725 727 730 734 737 739 743 747 749 752 755 756 757 757 760 762 760 763 766 765 767 771 774 774 779 779 785 793 798 801 805 809 807 807 807 806 804 803 802 802 800 799
713 715 718 721 723 726 729 733 737 742 744 746 748 749 749 750 753 752 756 758 759 759 765 768 771 777 776 778 787 795 799 799 803 805 804 802 802 799 798 797 796 794 792
700 704 708 711 714 716 718 722 727 732 735 738 738 739 740 741 742 743 748 753 755 759 762 765 773 772 780 783 784 792 796 797 798 800 800 797 797 794 793 792 791 788 786
692 695 699 702 705 709 712 716 720 724 728 729 730 731 732 734 735 738 741 748 755 759 761 766 767 777 783 785 787 792 793 794 796 796 795 792 792 790 788 785 784 781 780
683 690 695 697 699 703 705 710 712 715 718 722 725 729 731 733 737 741 743 750 756 763 766 764 770 776 780 785 785 788 789 789 792 792 789 788 788 788 782 780 778 777 775